sat.trackr.live / text

‹ back to catalog

STARLINK-36059

NORAD 66904 · 2025-283AC

PAYLOAD ACTIVE UNKNOWN

§ Identity

Operator
Country
US
Launch date
2025-12-04
Launch site
AFWTR
Launch vehicle
Mass (kg)
RCS (m²)

Purposes: comms

External: N2YO · Heavens-Above · Gunter

§ Orbital elements

Epoch: 2026-05-24T23:15:00.463104Z

Period
94.12 min
Inclination
53.1583°
Eccentricity
0.0008013
Mean motion
15.29964258 rev/d
Perigee alt
470.4 km
Apogee alt
481.4 km
Semi-major
6,854.1 km
B*
-8.3440e-3
RAAN
29.7959°
Arg perigee
94.5148°
Mean anomaly
265.6768°
Rev number
2,752

§ Raw data

STARLINK-360591 66904U 25283AC  26144.96875536 -.00238344  00000+0 -83440-2 0  99972 66904  53.1583  29.7959 0008013  94.5148 265.6768 15.29964258 27523

JSON: /api/v1/satellites/66904 · /tle

For live sub-satellite position, see the globe view (requires WebGL).

§ Visibility from observer

Set your observer location to see the next 7 days of passes ≥ 10°. The values pass through the URL so the page stays shareable.

No JS? Fill the form by hand. The geolocation button needs JavaScript.